Wind_Speed
34 30 28 24 17 16 17 16 16 11 8 6 2 4 4 2 3 4 4 5 8 8 9 11 13 14 11 9 8 8 8 8 9 15 16 14 14 15 16 14 6 10 11
29 30 30 25 20 18 16 15 14 12 7 4 1 1 3 2 3 4 4 5 7 8 11 11 14 12 10 9 7 8 8 12 18 16 14 13 12 12 12 11 6 10 12
27 33 28 29 27 18 17 17 15 12 9 3 3 2 2 1 4 5 6 5 6 8 7 11 12 11 9 8 7 8 11 16 17 13 12 11 10 10 11 8 8 13 12
27 31 30 29 31 21 17 18 17 15 12 7 5 3 3 5 6 8 8 7 7 6 8 10 9 8 6 7 7 9 11 15 13 11 10 8 10 10 8 9 11 11 17
22 25 28 27 30 27 25 20 17 17 14 10 8 7 1 5 9 13 16 12 7 10 13 10 7 6 8 9 8 9 14 15 15 12 6 11 8 12 13 14 13 14 15
21 22 23 26 25 25 24 25 20 16 15 12 10 8 7 3 1 9 12 11 12 15 13 14 10 7 9 9 8 12 15 18 14 11 5 11 5 13 15 13 12 15 13
17 21 23 23 23 18 24 26 26 20 15 14 11 9 6 4 2 8 3 15 12 14 14 14 10 8 9 9 9 17 17 14 10 6 4 4 6 11 15 14 10 10 12
17 23 25 22 24 26 26 19 26 24 19 14 12 10 7 4 3 4 7 8 10 10 17 14 9 15 12 11 12 17 15 15 10 9 4 5 8 11 14 14 11 9 11
17 22 27 26 23 24 24 27 24 25 23 19 13 11 7 5 5 6 9 9 11 10 10 14 11 12 15 14 15 19 15 12 14 9 3 3 7 12 12 12 10 11 10
18 20 25 27 26 23 21 22 24 28 22 19 16 13 10 6 5 8 13 14 12 12 16 14 11 12 19 15 19 20 17 12 9 10 2 4 3 12 11 12 8 12 12
16 19 21 26 25 23 20 21 20 25 32 20 17 12 12 8 7 6 8 17 15 13 13 12 9 17 18 15 19 20 19 9 11 18 6 5 4 10 12 10 9 11 12
14 16 19 25 25 23 21 24 21 19 25 29 21 16 11 10 8 8 5 7 15 8 10 10 14 15 14 20 20 22 24 7 14 11 5 3 6 9 14 14 12 14 13
13 15 17 21 24 26 23 22 22 21 24 21 29 20 11 10 7 7 7 7 10 8 6 11 16 17 18 23 23 25 24 9 14 8 4 4 5 11 14 16 14 15 13
13 14 15 18 23 24 25 25 24 21 22 20 24 29 16 13 7 5 8 8 11 12 12 11 14 18 18 25 26 27 23 10 16 11 7 6 4 10 17 16 15 14 15
13 14 13 17 21 23 23 29 26 21 22 18 19 27 23 16 11 7 6 9 12 14 18 17 16 14 16 19 27 30 28 15 15 13 10 8 4 9 11 17 16 13 17
13 13 13 15 17 21 23 24 26 22 22 17 18 22 27 19 14 10 6 7 13 13 19 22 22 21 22 22 25 33 28 19 21 13 11 10 7 11 9 11 16 13 17
15 13 15 16 17 19 20 24 22 22 22 16 18 18 27 22 17 12 10 7 11 13 16 23 25 25 24 25 22 33 27 18 17 14 9 12 11 12 13 14 14 15 18
14 14 15 16 15 15 18 20 20 22 21 19 17 16 22 22 19 14 12 9 5 11 14 17 26 26 22 23 23 22 32 22 17 17 11 10 9 11 16 17 13 15 18
17 18 19 17 14 14 14 19 18 22 19 18 15 15 20 26 20 17 13 9 9 5 11 18 21 28 29 22 26 25 25 26 16 18 17 13 7 4 8 18 14 16 15
19 20 20 18 13 14 13 15 16 20 21 17 18 15 18 22 22 19 14 10 9 10 4 10 26 24 23 20 26 23 22 26 19 12 17 15 9 4 4 13 19 19 18
17 17 16 12 10 9 17 15 15 17 20 17 16 15 13 17 25 21 16 10 8 10 8 4 10 25 23 17 22 20 20 24 23 21 17 16 15 10 9 9 10 13 23
21 20 15 12 12 10 7 12 13 18 17 18 16 12 13 15 21 21 19 12 7 7 11 3 3 11 27 22 28 22 16 22 30 16 16 19 18 14 13 14 13 9 21
18 18 15 6 7 10 13 10 12 13 16 18 14 12 16 12 17 19 20 15 7 6 11 6 2 11 12 18 36 26 11 11 28 26 20 20 21 19 17 14 12 8 10
16 18 11 10 10 12 10 9 10 13 15 16 15 16 14 11 9 15 18 14 10 6 8 9 4 5 10 12 32 43 22 14 15 13 21 21 23 23 21 19 16 14 11
13 11 14 10 6 12 14 9 10 13 16 15 16 15 16 15 14 14 16 12 11 7 6 6 9 7 8 13 23 32 35 27 20 17 14 23 24 24 25 22 21 22 21
12 12 12 13 12 11 10 11 12 13 15 15 17 13 14 17 14 14 12 12 12 8 6 6 7 9 10 14 15 16 42 45 36 31 27 22 30 27 25 26 23 20 23
Wind_Direction
2 4 4 19 18 25 17 7 7 347 354 342 3 332 338 306 220 219 233 230 216 196 175 164 162 155 156 160 156 158 163 170 166 144 134 126 115 106 95 77 92 99 89
358 4 10 16 16 22 19 5 355 353 349 339 291 312 331 292 207 219 237 218 203 192 170 165 160 156 153 151 146 147 144 144 140 136 137 124 114 105 110 129 66 99 96
11 5 8 16 7 18 20 12 357 352 341 337 232 225 157 247 199 213 215 202 199 182 157 175 161 161 158 158 145 135 138 141 140 132 132 128 116 113 124 144 118 110 103
14 13 10 11 4 11 9 11 5 357 349 348 325 244 176 162 206 229 211 176 200 181 169 169 174 181 181 161 144 138 142 139 128 120 133 122 116 118 132 136 112 103 113
20 18 8 7 11 4 1 355 359 1 358 359 358 353 312 195 218 231 226 224 198 172 160 169 182 190 187 164 149 140 139 126 112 126 130 110 103 105 109 114 115 113 128
4 13 17 9 6 359 352 360 352 348 357 356 4 12 7 252 239 240 234 206 230 232 197 185 179 205 186 170 157 144 143 135 117 142 170 120 127 115 117 128 123 133 137
10 10 13 20 13 349 358 1 351 337 344 349 352 357 8 0 265 252 235 203 231 213 221 203 201 185 195 184 161 147 147 141 151 175 252 235 134 124 129 135 141 146 143
11 4 360 8 15 11 359 352 351 341 337 335 336 343 347 335 298 200 128 190 199 230 218 193 202 198 201 193 164 155 149 141 151 195 203 239 146 134 143 147 159 138 142
13 13 2 358 4 8 9 359 340 342 341 328 324 323 330 323 286 233 213 192 200 210 191 206 232 194 199 188 174 165 166 165 157 162 157 21 144 150 156 154 153 141 147
5 14 7 1 3 14 8 352 351 345 345 330 321 313 309 315 295 267 215 200 205 217 218 233 263 224 193 206 183 170 171 181 205 167 141 317 38 162 168 160 164 153 157
360 2 8 358 2 6 14 355 354 352 340 340 327 315 306 303 283 268 265 231 217 239 234 236 208 183 185 197 185 175 169 139 183 189 195 285 287 168 172 158 153 147 157
359 358 8 356 3 4 8 354 355 359 338 340 340 327 320 315 296 267 252 249 228 234 204 203 191 195 206 194 189 180 173 115 172 188 195 268 266 176 181 166 166 157 161
354 350 3 360 359 5 13 349 356 358 344 350 334 336 319 315 310 264 231 214 204 197 187 194 190 202 205 192 193 186 182 182 184 193 198 275 264 172 179 174 172 167 174
345 343 356 4 352 2 9 350 354 359 340 350 342 326 336 315 322 288 240 214 199 200 188 201 217 217 212 205 199 190 190 187 204 219 228 250 258 173 181 181 182 180 171
332 333 343 359 350 354 8 350 354 352 334 348 338 320 326 326 319 332 249 222 211 203 190 189 195 205 215 211 199 197 182 190 206 214 225 227 215 173 188 186 192 195 178
318 322 328 352 338 342 352 347 346 338 329 339 337 326 322 329 321 322 316 234 216 212 211 196 192 195 220 222 213 209 203 217 176 196 226 220 193 182 189 188 187 187 176
309 307 323 329 325 332 347 346 343 332 327 337 328 326 318 328 328 324 317 309 224 215 218 218 204 203 213 222 224 213 209 202 191 191 229 211 194 179 185 194 192 199 191
299 308 314 319 313 317 339 345 339 328 328 328 322 326 314 321 328 321 311 318 273 223 219 226 225 209 226 212 216 203 180 185 174 188 229 229 229 188 184 197 197 185 198
288 295 297 294 302 306 334 333 334 325 323 320 322 322 311 318 331 326 310 303 326 264 214 220 222 227 225 206 205 205 201 192 194 185 211 210 223 195 190 182 195 193 197
285 284 286 288 292 315 325 326 326 317 325 318 321 316 327 317 327 332 325 305 311 318 254 224 227 234 223 185 192 197 199 200 218 205 221 190 194 237 198 179 195 197 201
304 295 286 268 293 313 322 329 328 320 320 320 316 315 329 318 324 338 325 307 313 320 326 258 226 218 212 216 193 200 210 211 219 196 213 200 203 209 212 204 226 223 212
327 313 313 281 281 290 306 324 330 318 319 314 320 316 325 332 320 333 337 331 317 299 334 320 237 230 220 211 198 196 199 211 227 221 203 219 210 200 211 221 233 257 214
329 335 337 305 337 331 320 350 330 318 314 324 327 333 329 336 310 327 336 333 311 313 339 359 248 240 223 214 205 194 161 204 209 213 213 216 208 200 211 221 229 232 217
331 332 327 319 324 318 312 337 321 322 318 320 326 319 325 6 333 324 329 331 325 313 331 22 356 259 243 188 212 211 202 183 186 200 217 220 211 210 218 214 218 228 228
344 348 350 353 301 331 352 336 324 319 323 324 323 329 324 326 3 327 332 337 337 311 312 354 16 8 254 228 185 212 214 207 204 196 205 208 210 213 218 217 216 208 208
340 338 335 337 351 334 331 324 326 321 323 321 319 335 316 313 322 332 339 336 330 321 308 310 332 349 334 249 206 188 219 218 214 215 217 229 220 212 214 217 225 225 214
Height
1561 1557 1555 1550 1550 1547 1545 1544 1543 1542 1541 1540 1539 1539 1539 1540 1540 1541 1542 1543 1543 1545 1545 1546 1547 1547 1549 1550 1549 1550 1550 1551 1551 1553 1554 1555 1555 1556 1557 1558 1557 1557 1558
1564 1560 1555 1552 1550 1549 1546 1545 1545 1545 1542 1540 1539 1539 1539 1540 1541 1542 1542 1543 1544 1545 1545 1546 1548 1549 1549 1551 1551 1551 1552 1552 1553 1555 1556 1557 1558 1558 1559 1559 1560 1560 1561
1564 1560 1556 1551 1552 1549 1547 1546 1546 1546 1543 1541 1539 1539 1539 1540 1540 1541 1542 1543 1544 1546 1544 1548 1548 1549 1550 1551 1552 1552 1553 1554 1555 1557 1557 1558 1559 1560 1561 1562 1562 1562 1563
1564 1560 1559 1557 1552 1548 1547 1547 1548 1547 1545 1542 1540 1538 1539 1539 1540 1541 1542 1542 1544 1545 1546 1548 1549 1550 1550 1551 1552 1553 1555 1556 1557 1558 1559 1560 1560 1561 1562 1563 1563 1565 1565
1565 1565 1564 1558 1551 1546 1550 1551 1549 1548 1546 1543 1540 1539 1539 1539 1539 1540 1541 1542 1545 1545 1546 1547 1549 1550 1551 1552 1553 1555 1556 1558 1558 1559 1561 1562 1561 1562 1563 1564 1565 1566 1568
1568 1566 1563 1558 1553 1557 1556 1552 1548 1550 1547 1544 1541 1539 1539 1539 1539 1539 1540 1539 1543 1545 1546 1547 1548 1551 1553 1553 1554 1556 1558 1559 1559 1560 1562 1563 1563 1563 1565 1566 1567 1569 1570
1571 1568 1565 1560 1561 1561 1557 1548 1551 1551 1546 1544 1542 1540 1539 1539 1540 1539 1538 1540 1542 1544 1545 1546 1548 1550 1554 1555 1556 1557 1559 1560 1561 1562 1562 1562 1564 1565 1566 1568 1569 1570 1571
1571 1567 1564 1563 1562 1557 1555 1550 1553 1551 1545 1543 1541 1540 1539 1539 1539 1538 1532 1540 1541 1542 1543 1545 1547 1547 1554 1555 1557 1558 1560 1561 1561 1561 1561 1561 1564 1566 1567 1568 1569 1571 1571
1571 1568 1563 1560 1558 1555 1551 1548 1552 1552 1545 1542 1541 1540 1539 1538 1539 1538 1538 1539 1540 1540 1541 1544 1547 1548 1552 1555 1557 1558 1560 1562 1563 1560 1562 1562 1564 1566 1568 1569 1570 1572 1573
1571 1568 1565 1561 1558 1557 1555 1553 1554 1549 1545 1542 1540 1539 1538 1536 1537 1538 1538 1537 1538 1539 1540 1543 1543 1542 1550 1553 1556 1558 1560 1562 1563 1561 1562 1563 1565 1566 1567 1569 1570 1572 1574
1572 1568 1566 1561 1558 1558 1558 1556 1554 1548 1546 1541 1538 1536 1535 1534 1535 1535 1536 1536 1536 1537 1538 1541 1542 1544 1548 1552 1554 1558 1560 1562 1563 1562 1562 1563 1565 1566 1568 1569 1570 1573 1575
1571 1568 1566 1562 1558 1556 1555 1553 1551 1551 1547 1540 1538 1535 1532 1532 1534 1534 1534 1534 1535 1534 1534 1539 1540 1544 1546 1550 1553 1557 1558 1562 1561 1561 1562 1563 1565 1566 1567 1570 1571 1574 1576
1571 1567 1566 1564 1559 1556 1555 1552 1551 1550 1547 1543 1539 1535 1530 1533 1533 1532 1532 1532 1533 1533 1533 1538 1539 1542 1545 1548 1551 1555 1557 1560 1560 1561 1561 1563 1564 1565 1567 1569 1571 1574 1576
1570 1567 1564 1563 1559 1558 1556 1553 1551 1549 1548 1546 1543 1534 1534 1534 1530 1528 1528 1529 1530 1531 1533 1536 1539 1541 1543 1547 1550 1553 1555 1557 1559 1560 1561 1563 1563 1564 1567 1569 1571 1573 1576
1568 1566 1562 1562 1559 1557 1556 1554 1552 1550 1548 1545 1543 1535 1533 1531 1528 1526 1526 1525 1528 1529 1531 1533 1536 1540 1542 1544 1548 1551 1552 1555 1558 1558 1561 1562 1563 1564 1566 1568 1570 1573 1575
1567 1565 1560 1561 1558 1555 1555 1553 1552 1549 1546 1544 1542 1537 1532 1530 1527 1525 1523 1523 1525 1526 1527 1530 1533 1536 1540 1542 1544 1547 1549 1550 1553 1558 1559 1561 1562 1563 1565 1567 1570 1572 1575
1563 1562 1557 1558 1556 1554 1552 1551 1550 1548 1545 1542 1540 1537 1530 1527 1524 1521 1521 1520 1521 1522 1524 1526 1530 1532 1535 1538 1541 1544 1547 1549 1552 1555 1557 1559 1561 1562 1565 1567 1570 1572 1574
1558 1557 1555 1554 1553 1550 1550 1549 1548 1547 1543 1541 1539 1536 1529 1526 1523 1520 1520 1519 1517 1519 1520 1523 1524 1528 1530 1531 1536 1540 1545 1548 1550 1553 1556 1558 1560 1561 1563 1566 1569 1571 1574
1553 1552 1552 1550 1549 1547 1547 1547 1545 1546 1542 1539 1536 1534 1529 1524 1523 1519 1518 1516 1515 1515 1516 1519 1520 1524 1528 1525 1533 1538 1543 1545 1548 1551 1555 1557 1558 1559 1561 1563 1567 1570 1572
1548 1547 1547 1547 1546 1545 1545 1543 1542 1543 1540 1537 1534 1532 1528 1523 1522 1519 1516 1515 1513 1511 1511 1513 1515 1519 1524 1523 1532 1537 1541 1544 1548 1549 1553 1555 1556 1558 1559 1562 1565 1568 1571
1545 1543 1543 1542 1541 1541 1545 1542 1538 1539 1537 1535 1533 1530 1528 1523 1519 1517 1514 1512 1510 1510 1509 1511 1512 1515 1517 1523 1531 1535 1540 1542 1546 1548 1552 1553 1556 1558 1559 1561 1563 1566 1568
1544 1542 1540 1536 1535 1541 1537 1538 1536 1536 1535 1532 1531 1528 1527 1523 1518 1516 1513 1511 1509 1509 1508 1506 1506 1511 1515 1519 1524 1531 1535 1540 1541 1544 1548 1551 1553 1556 1558 1560 1562 1563 1566
1543 1540 1539 1536 1535 1540 1538 1533 1533 1534 1532 1530 1527 1525 1524 1522 1516 1515 1513 1510 1507 1508 1508 1504 1506 1509 1511 1515 1519 1524 1530 1532 1536 1541 1544 1548 1551 1553 1556 1558 1560 1561 1563
1541 1540 1536 1535 1534 1537 1534 1531 1532 1531 1530 1528 1525 1523 1521 1517 1515 1513 1512 1510 1508 1508 1506 1503 1504 1505 1506 1509 1514 1518 1525 1525 1533 1539 1541 1545 1548 1550 1554 1557 1558 1560 1562
1540 1539 1535 1534 1533 1534 1532 1530 1530 1529 1528 1525 1524 1520 1519 1516 1515 1512 1511 1509 1507 1507 1506 1504 1503 1503 1506 1507 1509 1515 1521 1524 1528 1533 1536 1540 1545 1548 1550 1553 1556 1559 1561
1539 1537 1536 1533 1532 1531 1530 1530 1528 1528 1526 1524 1521 1518 1515 1513 1512 1510 1509 1507 1506 1504 1502 1502 1503 1502 1503 1503 1505 1508 1514 1517 1522 1527 1532 1536 1540 1543 1546 1549 1552 1554 1557